Weather History for KFEP - January, 2012

Change the Weather History Date:

Tuesday, January 17, 2012

  Actual Average Record
Temperature  
Mean Temperature 26 °F -  
Max Temperature 34 °F 26 °F 53 °F (1990)
Min Temperature 16 °F 8 °F -21 °F (1977)
Degree Days  
Heating Degree Days 40    
Moisture  
Dew Point 24 °F    
Average Humidity 86    
Maximum Humidity 91    
Minimum Humidity 76    
Precipitation  
Precipitation 0.00 in - - ()
Sea Level Pressure  
Sea Level Pressure 29.83 in    
Wind  
Wind Speed 12 mph (NW)    
Max Wind Speed 21 mph    
Max Gust Speed 30 mph    
Visibility 4 miles    
Events Snow    
Averages and records for this station are not official NWS values.
T = Trace of Precipitation, MM = Missing Value Source: NWS Daily Summary

Daily Weather History Graph

Daily Weather History Graph

Search for Another Location

Airport or City:

Trip Planner

Search our weather history database for the weather conditions in past years. The results will help you decide how hot, cold, wet, or windy it might be!

Date:

Astronomy

Jan. 17, 2012 Rise Set
Actual Time 7:23 AM CST 4:53 PM CST
Civil Twilight 6:52 AM CST 5:24 PM CST
Nautical Twilight 6:18 AM CST 5:58 PM CST
Astronomical Twilight 5:44 AM CST 6:32 PM CST
Moon 1:42 AM CST (1/17) 11:46 AM CST (1/17)
Length of Visible Light 10h 31m
Length of Day
9h 29m
Waning Crescent, 35% of the Moon is Illuminated
Jan 17
Waning Crescent
Jan 23
New
Jan 30
First Quarter
Feb 7
Full
Feb 14
Last Quarter

Hourly Weather History & Observations

Time (CST) Temp. Windchill Dew Point Humidity Pressure Visibility Wind Dir Wind Speed Gust Speed Precip Events Conditions
12:15 AM 34.2 °F 27.5 °F 30.7 °F 87% 29.69 in 10.0 mi NNE 8.1 mph - N/A   Overcast
12:35 AM 34.2 °F 27.5 °F 30.7 °F 87% 29.69 in 7.0 mi North 8.1 mph - N/A   Overcast
12:55 AM 33.3 °F 26.4 °F 30.2 °F 89% 29.69 in 7.0 mi North 8.1 mph - N/A   Overcast
1:15 AM 32.9 °F 25.3 °F 29.3 °F 87% 29.68 in 7.0 mi North 9.2 mph - N/A   Overcast
1:35 AM 32.9 °F 25.9 °F 29.3 °F 87% 29.69 in 7.0 mi North 8.1 mph - N/A   Overcast
1:55 AM 32.0 °F 23.6 °F 29.1 °F 89% 29.68 in 7.0 mi North 10.4 mph - N/A   Overcast
2:15 AM 32.0 °F 24.2 °F 28.4 °F 87% 29.68 in 7.0 mi North 9.2 mph - N/A   Overcast
2:35 AM 32.0 °F 23.0 °F 28.4 °F 87% 29.68 in 7.0 mi North 11.5 mph - N/A   Overcast
2:55 AM 32.0 °F 23.6 °F 28.4 °F 87% 29.68 in 7.0 mi North 10.4 mph - N/A   Overcast
3:15 AM 32.0 °F 23.6 °F 28.4 °F 87% 29.67 in 5.0 mi North 10.4 mph - N/A   Overcast
3:35 AM 32.0 °F 22.1 °F 28.4 °F 87% 29.66 in 5.0 mi North 13.8 mph - N/A   Overcast
3:55 AM 32.0 °F 23.6 °F 28.9 °F 88% 29.66 in 4.0 mi North 10.4 mph - N/A   Overcast
4:15 AM 32.0 °F 23.6 °F 29.3 °F 90% 29.68 in 2.5 mi North 10.4 mph - N/A   Overcast
4:35 AM 32.0 °F 22.5 °F 29.3 °F 90% 29.66 in 3.0 mi North 12.7 mph - N/A   Overcast
4:55 AM 32.0 °F 22.5 °F 29.3 °F 90% 29.65 in 3.0 mi North 12.7 mph 18.4 mph N/A   Overcast
5:15 AM 32.0 °F 23.0 °F 29.3 °F 90% 29.67 in 2.5 mi North 11.5 mph - N/A   Overcast
5:35 AM 32.0 °F 23.6 °F 29.7 °F 91% 29.68 in 2.0 mi NNW 10.4 mph 17.3 mph N/A Snow Light Snow
5:55 AM 32.0 °F 22.5 °F 29.7 °F 91% 29.69 in 1.2 mi NNW 12.7 mph 18.4 mph N/A Snow Light Snow
6:15 AM 31.8 °F 22.3 °F 29.5 °F 91% 29.67 in 1.8 mi NNW 12.7 mph 18.4 mph N/A Snow Light Snow
6:35 AM 29.5 °F 19.9 °F 27.1 °F 91% 29.68 in 2.0 mi NNW 11.5 mph 16.1 mph N/A Snow Light Snow
6:55 AM 30.2 °F 22.6 °F 26.6 °F 86% 29.69 in 3.0 mi NNW 8.1 mph 18.4 mph N/A Snow Light Snow
7:15 AM 29.3 °F 19.6 °F 27.0 °F 91% 29.71 in 1.2 mi NNW 11.5 mph 18.4 mph N/A Snow Light Snow
7:35 AM 29.3 °F 18.2 °F 27.0 °F 91% 29.74 in 2.5 mi NW 15.0 mph - N/A Snow Light Snow
7:55 AM 29.3 °F 17.3 °F 26.4 °F 89% 29.75 in 1.5 mi NW 17.3 mph 23.0 mph N/A Snow Light Snow
8:15 AM 29.3 °F 16.2 °F 26.6 °F 90% 29.76 in 1.8 mi NW 20.7 mph 27.6 mph N/A Snow Light Snow
8:35 AM 29.3 °F 18.2 °F 26.4 °F 89% 29.77 in 2.5 mi NW 15.0 mph - N/A   Overcast
8:55 AM 29.3 °F 18.2 °F 26.4 °F 89% 29.78 in 4.0 mi NW 15.0 mph 20.7 mph N/A Snow Light Snow
9:15 AM 29.3 °F 18.2 °F 26.1 °F 88% 29.80 in 2.5 mi NW 15.0 mph 28.8 mph N/A Snow Light Snow
9:35 AM 29.3 °F 16.6 °F 26.2 °F 88% 29.80 in 1.0 mi NW 19.6 mph - N/A Snow Light Snow
9:55 AM 28.0 °F 15.3 °F 25.2 °F 89% 29.82 in 1.0 mi NW 18.4 mph - N/A Snow Light Snow
10:15 AM 28.4 °F 16.2 °F 24.8 °F 86% 29.83 in 2.0 mi NW 17.3 mph 24.2 mph N/A Snow Light Snow
10:35 AM 27.3 °F 14.4 °F 23.9 °F 87% 29.85 in 1.8 mi NW 18.4 mph 23.0 mph N/A Snow Light Snow
10:55 AM 27.1 °F 14.9 °F 23.9 °F 88% 29.86 in 1.2 mi WNW 16.1 mph - N/A Snow Light Snow
11:15 AM 27.0 °F 15.2 °F 23.5 °F 87% 29.87 in 1.8 mi WNW 15.0 mph 25.3 mph N/A Snow Light Snow
11:35 AM 27.0 °F 15.2 °F 23.5 °F 87% 29.89 in 1.8 mi WNW 15.0 mph 24.2 mph N/A Snow Light Snow
11:55 AM 26.8 °F 12.9 °F 22.5 °F 84% 29.90 in 3.0 mi WNW 20.7 mph 28.8 mph N/A Snow Light Snow
12:15 PM 27.0 °F 14.7 °F 22.5 °F 83% 29.91 in 5.0 mi WNW 16.1 mph 23.0 mph N/A Snow Light Snow
12:35 PM 25.3 °F 13.1 °F 21.0 °F 84% 29.91 in 3.0 mi WNW 15.0 mph 28.8 mph N/A Snow Light Snow
12:55 PM 24.8 °F 11.1 °F 20.3 °F 83% 29.92 in 3.0 mi WNW 18.4 mph 26.5 mph N/A Snow Light Snow
1:15 PM 24.6 °F 11.3 °F 20.3 °F 84% 29.92 in 2.5 mi WNW 17.3 mph 25.3 mph N/A Snow Light Snow
1:35 PM 24.6 °F 11.3 °F 19.4 °F 81% 29.93 in 5.0 mi WNW 17.3 mph 23.0 mph N/A Snow Light Snow
1:55 PM 24.4 °F 11.0 °F 19.9 °F 83% 29.94 in 2.5 mi WNW 17.3 mph 23.0 mph N/A Snow Light Snow
2:15 PM 23.9 °F 10.8 °F 19.6 °F 84% 29.96 in 3.0 mi West 16.1 mph 20.7 mph N/A   Haze
2:35 PM 23.0 °F 8.7 °F 18.5 °F 83% 29.98 in 4.0 mi West 18.4 mph 25.3 mph N/A   Haze
2:55 PM 22.6 °F 7.5 °F 18.0 °F 82% 29.99 in 5.0 mi West 20.7 mph 29.9 mph N/A   Overcast
3:15 PM 21.9 °F 6.9 °F 17.4 °F 83% 30.02 in 4.0 mi West 19.6 mph 27.6 mph N/A   Haze
3:35 PM 21.2 °F 6.4 °F 17.6 °F 86% 30.04 in 5.0 mi West 18.4 mph 28.8 mph N/A   Haze
3:55 PM 21.9 °F 8.7 °F 17.4 °F 83% 30.06 in 2.5 mi West 15.0 mph 25.3 mph N/A   Haze
4:15 PM 21.0 °F 6.6 °F 16.2 °F 81% 30.08 in 4.0 mi WNW 17.3 mph 29.9 mph N/A   Haze
4:35 PM 20.7 °F 6.1 °F 15.8 °F 81% 30.09 in 5.0 mi West 17.3 mph 25.3 mph N/A   Overcast
4:55 PM 19.4 °F 5.0 °F 14.9 °F 83% 30.11 in 5.0 mi West 16.1 mph 26.5 mph N/A   Overcast
5:15 PM 19.4 °F 4.5 °F 13.8 °F 79% 30.11 in 10.0 mi West 17.3 mph 26.5 mph N/A   Scattered Clouds
5:35 PM 18.1 °F 3.4 °F 12.0 °F 77% 30.12 in 10.0 mi West 16.1 mph 23.0 mph N/A   Scattered Clouds
5:55 PM 17.4 °F 1.9 °F 11.1 °F 76% 30.13 in 10.0 mi West 17.3 mph 21.9 mph N/A   Scattered Clouds
6:15 PM 16.7 °F 2.6 °F 10.6 °F 77% 30.15 in 10.0 mi West 13.8 mph 23.0 mph N/A   Clear
6:35 PM 16.7 °F 2.0 °F 11.1 °F 79% 30.16 in 10.0 mi West 15.0 mph - N/A   Clear
6:55 PM 15.8 °F 2.1 °F 8.6 °F 73% 30.17 in 10.0 mi West 12.7 mph - N/A   Clear
7:15 PM 14.2 °F 0.0 °F 8.6 °F 78% 30.19 in 10.0 mi West 12.7 mph 18.4 mph N/A   Clear
7:35 PM 14.5 °F -1.3 °F 7.3 °F 73% 30.20 in 10.0 mi West 16.1 mph 21.9 mph N/A   Clear
7:55 PM 14.0 °F 0.5 °F 6.8 °F 73% 30.21 in 10.0 mi West 11.5 mph - N/A   Clear
8:15 PM 14.0 °F -0.2 °F 6.8 °F 73% 30.21 in 10.0 mi West 12.7 mph 18.4 mph N/A   Clear
8:35 PM 12.9 °F -0.2 °F 5.7 °F 73% 30.22 in 10.0 mi West 10.4 mph 19.6 mph N/A   Clear
8:55 PM 12.6 °F -2.0 °F 5.4 °F 73% 30.23 in 10.0 mi West 12.7 mph - N/A   Clear
9:15 PM 11.7 °F -0.9 °F 4.3 °F 72% 30.23 in 10.0 mi West 9.2 mph - N/A   Clear
9:35 PM 11.7 °F 1.1 °F 4.3 °F 72% 30.24 in 10.0 mi West 6.9 mph - N/A   Clear
9:55 PM 12.2 °F -1.0 °F 3.2 °F 67% 30.25 in 10.0 mi West 10.4 mph - N/A   Clear
10:15 PM 11.7 °F 0.0 °F 3.2 °F 69% 30.25 in 10.0 mi West 8.1 mph - N/A   Clear
10:35 PM 11.7 °F 1.1 °F 4.1 °F 72% 30.26 in 10.0 mi West 6.9 mph - N/A   Clear
10:55 PM 9.1 °F -1.9 °F 2.1 °F 73% 30.26 in 10.0 mi West 6.9 mph - N/A   Clear
11:15 PM 9.1 °F 0.8 °F 2.5 °F 74% 30.27 in 10.0 mi West 4.6 mph - N/A   Clear
11:35 PM 8.6 °F -2.6 °F 1.9 °F 74% 30.27 in 10.0 mi West 6.9 mph - N/A   Clear
11:55 PM 7.0 °F -3.3 °F 1.0 °F 77% 30.27 in 10.0 mi West 5.8 mph - N/A   Clear